Rockwall, TX

12:30 AM CDT on July 21, 2017 (GMT -0500)
Rockwall

Weather History for KF46 - April, 2014

Change the Weather History Date:

Monday, April 14, 2014

  Actual Average (KDFW) Record (KDFW)
Temperature  
Mean Temperature 48 °F -  
Max Temperature 53 °F 73 °F 91 °F (1951)
Min Temperature 42 °F 53 °F 35 °F (1997)
Degree Days  
Heating Degree Days 18    
Moisture  
Dew Point 35 °F    
Average Humidity 62    
Maximum Humidity 85    
Minimum Humidity 50    
Precipitation  
Precipitation 0.06 in - - ()
Sea Level Pressure  
Sea Level Pressure 30.00 in    
Wind  
Wind Speed 15 mph (NW)    
Max Wind Speed 24 mph    
Max Gust Speed 36 mph    
Visibility 10 miles    
Events Thunderstorm    
Averages and records for this station are not official NWS values.
T = Trace of Precipitation, MM = Missing Value Source: NWS Daily Summary

Daily Weather History Graph

Daily Weather History Graph

Search for Another Location

Airport or City:

Trip Planner

Search our weather history database for the weather conditions in past years. The results will help you decide how hot, cold, wet, or windy it might be!

Date:

Astronomy

Apr. 14, 2014 Rise Set
Actual Time 6:57 AM CDT 7:55 PM CDT
Civil Twilight 6:31 AM CDT 8:20 PM CDT
Nautical Twilight 6:01 AM CDT 8:50 PM CDT
Astronomical Twilight 5:31 AM CDT 9:21 PM CDT
Moon 7:35 PM CDT (4/14) 6:27 AM CDT (4/14)
Length of Visible Light 13h 48m
Length of Day
12h 58m
Full, 100% of the Moon is Illuminated
Apr 14
Full
Apr 15
Full
Apr 22
Last Quarter
Apr 29
New
May 6
First Quarter

Hourly Weather History & Observations

Time (CDT) Temp. Windchill Dew Point Humidity Pressure Visibility Wind Dir Wind Speed Gust Speed Precip Events Conditions
12:15 AM - - - N/A% 29.69 in 10.0 mi SSW 8.1 mph - N/A   Overcast
12:35 AM - - - N/A% 29.68 in 10.0 mi South 9.2 mph - N/A   Overcast
12:55 AM - - - N/A% 29.69 in 10.0 mi South 10.4 mph - N/A   Overcast
1:15 AM - - - N/A% 29.70 in 10.0 mi NNW 15.0 mph 23.0 mph N/A   Overcast
1:35 AM - - - N/A% 29.72 in 10.0 mi NNW 15.0 mph 24.2 mph N/A   Overcast
1:55 AM - - - N/A% 29.72 in 10.0 mi NNW 12.7 mph 18.4 mph N/A   Overcast
2:15 AM - - - N/A% 29.74 in 10.0 mi NNW 11.5 mph 18.4 mph N/A   Overcast
2:35 AM - - - N/A% 29.74 in 10.0 mi NNW 12.7 mph 24.2 mph N/A   Overcast
2:55 AM - - - N/A% 29.75 in 10.0 mi NNW 16.1 mph 23.0 mph N/A   Overcast
3:15 AM - - - N/A% 29.75 in 10.0 mi NW 18.4 mph 24.2 mph N/A   Overcast
3:35 AM - - - N/A% 29.76 in 10.0 mi NW 15.0 mph 20.7 mph N/A   Overcast
3:55 AM - - - N/A% 29.76 in 10.0 mi NW 15.0 mph 21.9 mph N/A   Overcast
4:15 AM - - - N/A% 29.77 in 10.0 mi NW 16.1 mph 23.0 mph N/A   Overcast
4:35 AM - - - N/A% 29.80 in 10.0 mi NW 13.8 mph 23.0 mph N/A   Overcast
4:55 AM - - - N/A% 29.80 in 10.0 mi NW 16.1 mph 25.3 mph N/A   Overcast
5:15 AM - - - N/A% 29.82 in 10.0 mi WNW 20.7 mph 28.8 mph N/A   Overcast
5:35 AM - - - N/A% 29.83 in 10.0 mi WNW 21.9 mph 27.6 mph N/A   Overcast
5:55 AM - - - N/A% 29.85 in 10.0 mi NW 16.1 mph 25.3 mph N/A   Overcast
6:15 AM - - - N/A% 29.86 in 10.0 mi WNW 13.8 mph 27.6 mph N/A   Overcast
6:35 AM - - - N/A% 29.89 in 10.0 mi WNW 20.7 mph 32.2 mph N/A   Overcast
6:55 AM - - - N/A% 29.90 in 10.0 mi WNW 18.4 mph 26.5 mph N/A   Overcast
7:15 AM - - - N/A% 29.92 in 10.0 mi WNW 23.0 mph 27.6 mph N/A   Overcast
7:35 AM - - - N/A% 29.93 in 10.0 mi WNW 19.6 mph 29.9 mph N/A   Overcast
7:55 AM - - - N/A% 29.95 in 10.0 mi WNW 18.4 mph 35.7 mph N/A   Overcast
8:15 AM - - - N/A% 29.96 in 10.0 mi WNW 19.6 mph 25.3 mph N/A   Overcast
8:35 AM - - - N/A% 29.97 in 10.0 mi WNW 21.9 mph 29.9 mph N/A   Overcast
8:55 AM - - - N/A% 29.97 in 10.0 mi WNW 19.6 mph 28.8 mph N/A   Overcast
9:15 AM - - - N/A% 29.97 in 10.0 mi NW 19.6 mph 29.9 mph N/A   Overcast
9:35 AM 44.8 °F 37.4 °F 37.6 °F 76% 30.00 in 10.0 mi WNW 17.3 mph 27.6 mph N/A   Overcast
9:55 AM 44.6 °F 37.4 °F 37.8 °F 77% 30.02 in 10.0 mi WNW 16.1 mph 26.5 mph N/A   Overcast
10:15 AM 43.5 °F 36.7 °F 39.2 °F 85% 30.00 in 10.0 mi NW 13.8 mph 23.0 mph 0.06 in Thunderstorm Overcast
10:35 AM 44.4 °F 35.9 °F 39.2 °F 82% 30.01 in 10.0 mi WNW 21.9 mph 29.9 mph 0.06 in   Overcast
10:55 AM 45.1 °F 37.3 °F 38.8 °F 79% 30.02 in 10.0 mi WNW 19.6 mph 32.2 mph 0.06 in Thunderstorm Thunderstorm
11:15 AM 45.1 °F 36.9 °F 38.5 °F 77% 30.03 in 10.0 mi WNW 21.9 mph 31.1 mph N/A Thunderstorm Overcast
11:35 AM 45.5 °F 37.1 °F 37.6 °F 74% 30.04 in 10.0 mi WNW 23.0 mph 33.4 mph N/A   Overcast
11:55 AM 45.9 °F 37.8 °F 37.6 °F 73% 30.05 in 10.0 mi WNW 21.9 mph 28.8 mph N/A   Overcast
12:15 PM 45.9 °F 37.4 °F 36.7 °F 70% 30.05 in 10.0 mi WNW 24.2 mph 33.4 mph N/A   Overcast
12:35 PM 45.9 °F 37.6 °F 36.0 °F 68% 30.07 in 10.0 mi WNW 23.0 mph 29.9 mph N/A   Overcast
12:55 PM 47.3 °F - 36.9 °F 67% 30.09 in 10.0 mi WNW 19.6 mph 26.5 mph N/A   Overcast
1:15 PM 47.8 °F - 35.8 °F 63% 30.09 in 10.0 mi WNW 16.1 mph 26.5 mph N/A   Overcast
1:35 PM 47.7 °F - 36.0 °F 64% 30.09 in 10.0 mi NW 18.4 mph 27.6 mph N/A   Overcast
1:55 PM 47.8 °F - 35.6 °F 63% 30.10 in 10.0 mi WNW 20.7 mph 28.8 mph N/A   Overcast
2:15 PM 48.2 °F - 35.8 °F 62% 30.10 in 10.0 mi WNW 21.9 mph 29.9 mph N/A   Overcast
2:35 PM 48.2 °F - 36.1 °F 63% 30.09 in 10.0 mi NW 17.3 mph 27.6 mph N/A   Overcast
2:55 PM 49.1 °F - 34.9 °F 58% 30.09 in 10.0 mi WNW 17.3 mph 31.1 mph N/A   Overcast
3:15 PM 49.3 °F - 35.6 °F 59% 30.09 in 10.0 mi NW 17.3 mph 26.5 mph N/A   Overcast
3:35 PM 50.2 °F - 34.7 °F 55% 30.09 in 10.0 mi WNW 17.3 mph 31.1 mph N/A   Overcast
3:55 PM 50.7 °F - 35.1 °F 55% 30.09 in 10.0 mi NW 20.7 mph 32.2 mph N/A   Mostly Cloudy
4:15 PM 52.3 °F - 35.1 °F 52% 30.08 in 10.0 mi WNW 24.2 mph 31.1 mph N/A   Scattered Clouds
4:35 PM 51.1 °F - 34.7 °F 54% 30.08 in 10.0 mi NW 17.3 mph 28.8 mph N/A   Mostly Cloudy
4:55 PM 52.3 °F - 35.4 °F 53% 30.09 in 10.0 mi NW 17.3 mph 25.3 mph N/A   Mostly Cloudy
5:15 PM 53.6 °F - 35.1 °F 50% 30.10 in 10.0 mi WNW 24.2 mph 32.2 mph N/A   Overcast
5:35 PM 51.4 °F - 34.2 °F 52% 30.10 in 10.0 mi NW 19.6 mph 26.5 mph N/A   Overcast
5:55 PM 51.1 °F - 34.2 °F 52% 30.11 in 10.0 mi NNW 15.0 mph 28.8 mph N/A   Overcast
6:15 PM 50.2 °F - 33.1 °F 52% 30.11 in 10.0 mi NW 17.3 mph 28.8 mph N/A   Overcast
6:35 PM 50.0 °F - 33.4 °F 53% 30.11 in 10.0 mi NW 18.4 mph 23.0 mph N/A   Overcast
6:55 PM 50.5 °F - 33.8 °F 53% 30.12 in 10.0 mi NNW 9.2 mph 18.4 mph N/A   Overcast
7:15 PM 48.4 °F - 33.3 °F 56% 30.12 in 10.0 mi NNW 10.4 mph 19.6 mph N/A   Mostly Cloudy
7:35 PM 47.8 °F - 34.0 °F 59% 30.13 in 10.0 mi North 11.5 mph - N/A   Mostly Cloudy
7:55 PM 47.3 °F - 33.8 °F 59% 30.13 in 10.0 mi NNW 8.1 mph - N/A   Mostly Cloudy
8:15 PM 46.4 °F 42.4 °F 34.2 °F 62% 30.14 in 10.0 mi NNW 8.1 mph - N/A   Mostly Cloudy
8:35 PM 46.4 °F 42.4 °F 32.7 °F 59% 30.15 in 10.0 mi NW 8.1 mph - N/A   Mostly Cloudy
8:55 PM 46.8 °F - 32.0 °F 57% 30.17 in 10.0 mi NW 10.4 mph 16.1 mph N/A   Scattered Clouds
9:15 PM 46.6 °F - 31.8 °F 56% 30.17 in 10.0 mi NW 10.4 mph 18.4 mph N/A   Clear
9:35 PM 46.0 °F 42.5 °F 32.0 °F 58% 30.19 in 10.0 mi NW 6.9 mph - N/A   Clear
9:55 PM 45.3 °F 41.6 °F 32.0 °F 60% 30.20 in 10.0 mi WNW 6.9 mph - N/A   Clear
10:15 PM 44.6 °F 40.2 °F 32.0 °F 61% 30.21 in 10.0 mi WNW 8.1 mph - N/A   Clear
10:35 PM 43.7 °F 39.1 °F 31.8 °F 63% 30.22 in 10.0 mi WNW 8.1 mph - N/A   Clear
10:55 PM 43.0 °F 38.8 °F 32.0 °F 65% 30.22 in 10.0 mi WNW 6.9 mph - N/A   Clear
11:15 PM 42.8 °F 38.0 °F 31.8 °F 65% 30.22 in 10.0 mi WNW 8.1 mph - N/A   Clear
11:35 PM 43.5 °F 37.9 °F 31.6 °F 63% 30.23 in 10.0 mi WNW 10.4 mph - N/A   Clear
11:55 PM 43.0 °F 38.2 °F 31.6 °F 64% 30.24 in 10.0 mi WNW 8.1 mph - N/A   Clear